Hourly Data Report for October 07, 2015

All times are specified in Local Standard Time (LST). Add 1 hour to adjust for Daylight Saving Time where and when it is observed.

RANKIN INLET A
NUNAVUT

62°48'38.000" N
92°06'53.000" W
32.30 m
2303405
71083
YRT

Download Data

Hourly Data (October 2015)
Hourly Data Report for October 7, 2015
Temp Definition
°C
Dew Point Temp Definition
°C
Rel Hum Definition
%
Wind Dir Definition
10's deg

Wind Spd Definition
km/h
Visibility Definition
km
Stn Press Definition
kPa
Hmdx Definition


Wind Chill Definition


Weather Definition


TIME
00:00 Legend Double Dagger -1.2 -2.8 89 32 27 24.1 100.67   -8 Snow
01:00 Legend Double Dagger -2.1 -3.7 89 33 24 24.1 100.70   -8 Snow
02:00 Legend Double Dagger -2.6 -4.2 89 32 22 24.1 100.74   -9 Snow
03:00 Legend Double Dagger -2.3 -3.9 89 33 25 24.1 100.76   -9 Snow
04:00 Legend Double Dagger -2.9 -4.3 90 33 18 24.1 100.79   -9 Snow
05:00 Legend Double Dagger -3.5 -4.9 90 32 21 24.1 100.85   -10 LegendNANA
06:00 Legend Double Dagger -3.5 -5.2 88 32 21 24.1 100.89   -10 Mainly Clear
07:00 Legend Double Dagger -2.8 -4.7 87 34 24 24.1 100.92   -9 LegendNANA
08:00 Legend Double Dagger -3.0 -5.7 82 35 25 24.1 100.95   -10 LegendNANA
09:00 Legend Double Dagger -3.0 -7.7 70 1 26 24.1 100.98   -10 Mainly Clear
10:00 Legend Double Dagger -3.0 -8.9 64 36 21 24.1 100.98   -9 LegendNANA
11:00 Legend Double Dagger -3.0 -10.2 58 36 19 24.1 100.99   -9 LegendNANA
12:00 Legend Double Dagger -2.7 -10.1 57 1 10 24.1 101.01   -7 Mainly Clear
13:00 Legend Double Dagger -2.4 -10.5 54 32 7 24.1 101.00   -5 LegendNANA
14:00 Legend Double Dagger -2.2 -11.3 50 36 8 24.1 100.99   -5 LegendNANA
15:00 Legend Double Dagger -2.3 -11.6 49 36 1 24.1 100.95   -3 Mostly Cloudy
16:00 Legend Double Dagger -2.5 -10.8 53 3 3 24.1 100.92   -4 LegendNANA
17:00 Legend Double Dagger -2.6 -11.2 52 10 5 24.1 100.87   -5 LegendNANA
18:00 Legend Double Dagger -2.6 -10.2 56 14 8 24.1 100.83   -6 Cloudy
19:00 Legend Double Dagger -2.3 -9.7 57 13 10 24.1 100.77   -6 LegendNANA
20:00 Legend Double Dagger -2.5 -9.0 61 12 14 24.1 100.70   -7 LegendNANA
21:00 Legend Double Dagger -3.2 -7.2 74 14 17 24.1 100.63   -9 Snow
22:00 Legend Double Dagger -3.9 -5.9 86 11 15 12.9 100.60   -9 Snow
23:00 Legend Double Dagger -4.0 -5.4 90 7 18 12.9 100.54   -10 Snow

Notes on Data Quality.

Legend

  • E = Estimated
  • M = Missing
  • NA = Not Available
  • ‡ = Partner data that is not subject to review by the National Climate Archives
Date modified: